User: anonymous   Login
Location: LDNL
(36.4545°S, 141.6685°E)
Time: 00:08:49
(UTC+11:00)
Language:

A-11 Canister half - Orbit

View from above orbital plane
View from above orbital plane
View from above satellite
View from above satellite

Ground track
Ground track

The orbit data is extracted from the following two-line orbital elements,

1 00053U 60009E   22278.76334961 -.00000099  00000-0 -13178-3 0  9996
2 00053  47.2752 187.5509 0100253  43.6702 317.1967 12.17280538770921
Epoch (UTC): 05 October 2022 18:19:13
Eccentricity: 0.0100253
inclination: 47.2752°
perigee height: 1524 km
apogee height: 1684 km
right ascension of ascending node: 187.5509°
argument of perigee: 43.6702°
revolutions per day: 12.17280538
mean anomaly at epoch: 317.1967°
orbit number at epoch: 77092

The dashed part of the orbit path shows where the satellite is in the earth's shadow,  

DLR